Regional Weather Roundup
Issued by NWS

Home | Current Version | Previous Version | Text Only | Print | Product List | Glossary Off
Versions: 1 2 3 4 5 6 7 8 9 10 11 12 13 14 15 16 17 18 19 20 21 22 23 24 25 26 27 28 29 30 31 32 33 34 35 36 37 38 39 40 41 42 43 44 45 46 47 48 49 50

000
ASUS43 KIND 291759
RWRIN

WEATHER ROUNDUP FOR INDIANA
NATIONAL WEATHER SERVICE INDIANAPOLIS IN
200 PM EDT TUE JUL 29 2014

NOTE: "FAIR" INDICATES FEW OR NO CLOUDS BELOW 12,000 FEET WITH NO
SIGNIFICANT WEATHER AND/OR OBSTRUCTIONS TO VISIBILITY.

* - STATION DOES NOT REPORT WEATHER SUCH AS PRECIPITATION OR FOG.

+ - STATION NOT QUALITY CONTROLLED BY THE NATIONAL WEATHER SERVICE.
    USE DATA WITH CAUTION...ESPECIALLY DEWPOINT AND RELATIVE
    HUMIDITY OBSERVATIONS.

INZ001>003-010>013-019-020-291900-
NORTHWEST INDIANA

CITY           SKY/WX    TMP DP  RH WIND       PRES   REMARKS
GARY /AIRPORT/ MOSUNNY   75  57  53 N12G25    30.03F
VALPARAISO     SUNNY     75  56  51 NW10      30.03F
6HR MIN TEMP:  54; 6HR MAX TEMP:  75;


$$

LMZ046-743>745-291900-
SOUTHERN LAKE MICHIGAN

STATION/POSITION TIME  TEMP WIND        PRES
                       AIR  DIR/SP/G
                 (UTC) (F)  (DEG/KT/KT) (MB)
MICHIGAN CITY    1700   67  290/  9/ 10   N/A

$$

INZ004-005-014>016-021>024-291900-
NORTH CENTRAL INDIANA

CITY           SKY/WX    TMP DP  RH WIND       PRES   REMARKS
ELKHART        PTSUNNY   72  55  56 W10       30.02
GOSHEN         PTSUNNY   72  57  59 W10G20    30.02F
6HR MIN TEMP:  51; 6HR MAX TEMP:  73;

SOUTH BEND     MOSUNNY   75  57  53 NW15      30.03S
6HR MIN TEMP:  53; 6HR MAX TEMP:  75;


$$

INZ006>009-017-018-025>027-291900-
NORTHEAST INDIANA

CITY           SKY/WX    TMP DP  RH WIND       PRES   REMARKS
ANGOLA *+      PTSUNNY   66  59  77 SW7       30.02F
FORT WAYNE     PTSUNNY   71  54  54 SW7       30.05F
6HR MIN TEMP:  51; 6HR MAX TEMP:  71;


$$

INZ028-029-035-036-043>045-051>053-291900-
WEST CENTRAL INDIANA

CITY           SKY/WX    TMP DP  RH WIND       PRES   REMARKS
GREENCASTLE +  PTSUNNY   72  54  53 N7        30.09S
LAFAYETTE      PTSUNNY   75  56  51 VRB5      30.05F
6HR MIN TEMP:  53; 6HR MAX TEMP:  76;

TERRE HAUTE    PTSUNNY   73  57  57 NW9       30.09S
6HR MIN TEMP:  55; 6HR MAX TEMP:  75;


$$

INZ030>032-037>040-046>048-054>057-064-065-291900-
CENTRAL INDIANA

CITY           SKY/WX    TMP DP  RH WIND       PRES   REMARKS
INDIANAPOLIS   PTSUNNY   73  53  49 W9        30.08S
6HR MIN TEMP:  56; 6HR MAX TEMP:  73;

-EAGLE CREEK   MOSUNNY   72  51  47 NW6       30.07S
6HR MIN TEMP:  57; 6HR MAX TEMP:  73;

KOKOMO *+      PTSUNNY   73  55  53 W10       30.05F
MT COMFORT *+  MOSUNNY   73  52  46 CALM      30.07S
SHELBYVILLE    MOSUNNY   74  53  48 W6        30.07S
6HR MIN TEMP:  55; 6HR MAX TEMP:  74;


$$

INZ033-034-041-042-049-050-058-059-291900-
EAST CENTRAL INDIANA

CITY           SKY/WX    TMP DP  RH WIND       PRES   REMARKS
MUNCIE         PTSUNNY   70  52  52 NW7       30.06F
6HR MIN TEMP:  51; 6HR MAX TEMP:  71;


$$

INZ060-061-067>069-081>083-085>088-291900-
SOUTHWEST INDIANA

CITY           SKY/WX    TMP DP  RH WIND       PRES   REMARKS
EVANSVILLE     MOSUNNY   77  54  44 NW14G20   30.11F
6HR MIN TEMP:  58; 6HR MAX TEMP:  77;


$$

INZ062-063-066-070>080-084-089>092-291900-
SOUTH CENTRAL AND SOUTHEAST INDIANA

CITY           SKY/WX    TMP DP  RH WIND       PRES   REMARKS
BLOOMINGTON    MOSUNNY   73  56  54 VRB3      30.09S
6HR MIN TEMP:  55; 6HR MAX TEMP:  74;

SEYMOUR +      MOSUNNY   68  39  34 W6        30.08F

$$




USA.gov is the U.S. government's official web portal to all federal, state and local government web resources and services.